| time (UTC) | temp F | wind direction | speed knots | gust knots | rain 1hr in | rain 24hr in | rain mn in | humidity % | barometer mb |
| 20260505004538 | 56 | 131 | 5.2 | 13.9 | 0.00 | 0.12 | 0.12 | 58 | 1000.6 |
| 20260505003038 | 57 | 131 | 0.0 | 0.9 | 0.00 | 0.12 | 0.12 | 56 | 1000.4 |
| 20260505001547 | 58 | 131 | 0.0 | 0.0 | 0.00 | 0.12 | 0.12 | 54 | 1000.2 |
| 20260505000041 | 57 | 131 | 0.0 | 0.0 | 0.00 | 0.12 | 0.12 | 58 | 999.8 |
| 20260504234536 | 56 | 131 | 0.0 | 0.0 | 0.00 | 0.12 | 0.12 | 62 | 1000.0 |
| 20260504233036 | 56 | 131 | 0.0 | 0.0 | 0.00 | 0.12 | 0.12 | 65 | 999.9 |
| 20260504231551 | 55 | 131 | 0.0 | 1.7 | 0.00 | 0.12 | 0.12 | 67 | 999.5 |
| 20260504230033 | 55 | 131 | 0.0 | 1.7 | 0.00 | 0.12 | 0.12 | 64 | 999.6 |
| 20260504224537 | 57 | 131 | 0.9 | 4.3 | 0.00 | 0.12 | 0.12 | 57 | 999.7 |
| 20260504223032 | 58 | 131 | 0.0 | 0.9 | 0.00 | 0.12 | 0.12 | 53 | 999.5 |
| 20260504221531 | 59 | 131 | 0.0 | 1.7 | 0.00 | 0.12 | 0.12 | 47 | 998.9 |
| 20260504220033 | 59 | 131 | 0.9 | 6.1 | 0.02 | 0.12 | 0.12 | 48 | 998.1 |
| 20260504214530 | 59 | 131 | 2.6 | 6.1 | 0.03 | 0.12 | 0.12 | 52 | 997.8 |
| 20260504213029 | 58 | 131 | 3.5 | 8.7 | 0.12 | 0.12 | 0.12 | 53 | 998.4 |
| 20260504211529 | 55 | 131 | 1.7 | 7.8 | 0.12 | 0.12 | 0.12 | 65 | 998.8 |
| 20260504210036 | 54 | 131 | 0.0 | 2.6 | 0.10 | 0.10 | 0.10 | 64 | 999.3 |
| 20260504204525 | 56 | 131 | 4.3 | 11.3 | 0.09 | 0.09 | 0.09 | 52 | 999.3 |
| 20260504203030 | 63 | 131 | 3.5 | 18.2 | 0.00 | 0.00 | 0.00 | 32 | 999.0 |
| 20260504201521 | 69 | 131 | 0.0 | 3.5 | 0.00 | 0.00 | 0.00 | 23 | 997.6 |
| 20260504200021 | 70 | 131 | 2.6 | 8.7 | 0.00 | 0.00 | 0.00 | 23 | 997.2 |
| 20260504194532 | 71 | 131 | 3.5 | 15.6 | 0.00 | 0.00 | 0.00 | 23 | 997.1 |
| 20260504193020 | 72 | 131 | 4.3 | 11.3 | 0.00 | 0.00 | 0.00 | 23 | 997.2 |
| 20260504191518 | 74 | 131 | 2.6 | 7.8 | 0.00 | 0.00 | 0.00 | 19 | 997.3 |
| 20260504190017 | 76 | 131 | 0.9 | 4.3 | 0.00 | 0.00 | 0.00 | 19 | 997.4 |
| 20260504184514 | 76 | 131 | 1.7 | 5.2 | 0.00 | 0.00 | 0.00 | 20 | 997.5 |
| 20260504183012 | 74 | 131 | 1.7 | 5.2 | 0.00 | 0.00 | 0.00 | 20 | 997.9 |
| 20260504181506 | 73 | 131 | 0.9 | 5.2 | 0.00 | 0.00 | 0.00 | 22 | 998.1 |
| 20260504180002 | 70 | 131 | 0.9 | 6.1 | 0.00 | 0.00 | 0.00 | 24 | 998.3 |
| 20260504174558 | 69 | 131 | 1.7 | 7.8 | 0.00 | 0.00 | 0.00 | 25 | 998.6 |
| 20260504173110 | 67 | 131 | 3.5 | 7.8 | 0.00 | 0.00 | 0.00 | 26 | 998.9 |
| 20260504171550 | 66 | 131 | 4.3 | 8.7 | 0.00 | 0.00 | 0.00 | 27 | 999.1 |
| 20260504081551 | 49 | 131 | 0.0 | 0.9 | 0.00 | 0.00 | 0.00 | 36 | 1000.0 |
| 20260504044531 | 55 | 131 | 2.6 | 7.0 | 0.00 | 0.00 | 0.00 | 31 | 1001.4 |
| 20260504043028 | 57 | 131 | 0.0 | 1.7 | 0.00 | 0.00 | 0.00 | 29 | 1000.8 |
| 20260504041526 | 59 | 131 | 0.0 | 3.5 | 0.00 | 0.00 | 0.00 | 27 | 1000.9 |
| 20260504040030 | 60 | 131 | 1.7 | 4.3 | 0.00 | 0.00 | 0.00 | 26 | 1001.0 |
| 20260504034538 | 60 | 131 | 0.9 | 4.3 | 0.00 | 0.00 | 0.00 | 26 | 1001.2 |
| 20260504033030 | 61 | 131 | 0.9 | 4.3 | 0.00 | 0.00 | 0.00 | 25 | 1001.1 |
| 20260504031525 | 62 | 131 | 0.9 | 3.5 | 0.00 | 0.00 | 0.00 | 25 | 1001.1 |
| 20260504030036 | 63 | 131 | 0.9 | 5.2 | 0.00 | 0.00 | 0.00 | 24 | 1000.9 |
| 20260504024524 | 63 | 131 | 1.7 | 5.2 | 0.00 | 0.00 | 0.00 | 23 | 1000.9 |
| 20260504023023 | 64 | 131 | 2.6 | 7.0 | 0.00 | 0.00 | 0.00 | 23 | 1000.7 |
| 20260504021523 | 64 | 131 | 1.7 | 4.3 | 0.00 | 0.00 | 0.00 | 23 | 1000.7 |
| 20260504020022 | 64 | 131 | 0.0 | 0.9 | 0.00 | 0.00 | 0.00 | 22 | 1000.6 |
| 20260504014524 | 65 | 131 | 0.0 | 1.7 | 0.00 | 0.00 | 0.00 | 22 | 1000.6 |
| 20260504013023 | 66 | 131 | 0.0 | 3.5 | 0.00 | 0.00 | 0.00 | 21 | 1000.5 |
| 20260504011522 | 67 | 131 | 0.0 | 3.5 | 0.00 | 0.00 | 0.00 | 21 | 1000.5 |
| 20260504010019 | 68 | 131 | 0.0 | 1.7 | 0.00 | 0.00 | 0.00 | 21 | 1000.7 |